This is the latest recevied weather packets stored in our database for station/object YO8SDE-8. If no packets are shown the sender has not sent any weather packets the latest 10 day(s).
| Time | Temp. | Humidity | Pressure | Rain* | Wind** | Luminosity | Snow |
|---|---|---|---|---|---|---|---|
| 1777626065 | 16.67° C | 28% | 1014.8 hPa | 0 mm | - | - | - |
| 1777625765 | 16.67° C | 27% | 1014.7 hPa | 0 mm | - | - | - |
| 1777625465 | 17.22° C | 27% | 1014.7 hPa | 0 mm | - | - | - |
| 1777625165 | 18.33° C | 26% | 1014.8 hPa | 0 mm | - | - | - |
| 1777624865 | 16.67° C | 27% | 1014.9 hPa | 0 mm | - | - | - |
| 1777624565 | 16.67° C | 27% | 1014.7 hPa | 0 mm | - | - | - |
| 1777624265 | 16.67° C | 28% | 1015 hPa | 0 mm | - | - | - |
| 1777623965 | 17.22° C | 28% | 1014.9 hPa | 0 mm | - | - | - |
| 1777623665 | 16.67° C | 29% | 1015.1 hPa | 0 mm | - | - | - |
| 1777623365 | 17.22° C | 28% | 1015 hPa | 0 mm | - | - | - |
| 1777623066 | 16.67° C | 29% | 1014.9 hPa | 0 mm | - | - | - |
| 1777622765 | 15.56° C | 30% | 1015 hPa | 0 mm | - | - | - |
| 1777622465 | 14.44° C | 33% | 1015.1 hPa | 0 mm | - | - | - |
| 1777622165 | 13.33° C | 31% | 1015 hPa | 0 mm | - | - | - |
| 1777621866 | 14.44° C | 30% | 1015 hPa | 0 mm | - | - | - |
| 1777621565 | 13.89° C | 32% | 1014.9 hPa | 0 mm | - | - | - |
| 1777621266 | 12.78° C | 35% | 1015 hPa | 0 mm | - | - | - |
| 1777620965 | 12.78° C | 33% | 1015 hPa | 0 mm | - | - | - |
| 1777620666 | 12.78° C | 33% | 1015 hPa | 0 mm | - | - | - |
| 1777620366 | 12.22° C | 33% | 1015.1 hPa | 0 mm | - | - | - |
| 1777620065 | 12.78° C | 34% | 1015.1 hPa | 0 mm | - | - | - |
| 1777619766 | 12.78° C | 33% | 1015.1 hPa | 0 mm | - | - | - |
| 1777619466 | 12.78° C | 35% | 1015.1 hPa | 0 mm | - | - | - |
| 1777619166 | 12.22° C | 34% | 1015.1 hPa | 0 mm | - | - | - |
| 1777618866 | 11.67° C | 34% | 1015.2 hPa | 0 mm | - | - | - |
* Rain latest hour (hover to see other rain measurements)
** Current wind speed in m/s (hover to see current wind gust speed)